Location: ??????
(42.0089°N, 44.3281°E)
Time: 17:39:38
(UTC+00:00)

Okean 1-7 Rocket - Pass Details

Date: 06 June 2022
Orbit: 616 x 648 km, 82.5° (Epoch: 01 July)

Event Time Altitude Azimuth Distance (km) Brightness Sun altitude
Exits shadow 23:01:02 28° 152° (SSE) 1,163 4.6 -19.6°
Maximum altitude 23:02:59 49° 93° (E) 800 4.2 -19.4°
Drops below altitude 10° 23:07:14 10° 19° (NNE) 1,987 7.3 -19.0°
Sets 23:09:30 0° 14° (NNE) 2,898 8.4 -18.8°
